Location: Christianberg
(48.9086°N, 14.0209°E)
Time: 22:08:46
(UTC+00:00)

Cosmos 1782 - Pass Details

Date: 20 June 2021
Orbit: 537 x 550 km, 82.5° (Epoch: 04 August)

Event Time Altitude Azimuth Distance (km) Brightness Sun altitude
Rises 02:09:56 0° 343° (NNW) 2,721 6.8 -6.8°
Reaches altitude 10° 02:12:13 10° 334° (NNW) 1,825 5.8 -6.5°
Maximum altitude 02:15:54 36° 268° (W) 883 3.5 -6.1°
Drops below altitude 10° 02:19:34 10° 201° (SSW) 1,817 4.9 -5.7°
Enters shadow 02:20:55 - 196° (SSW) 2,346 5.5 -5.6°
